contact:dominique.lefevre@mio.osupytheas.fr, maurice.libes@osupytheas.fr, didier.mallarino@osupytheas.fr
Project:EMSO http://www.emso-fr.org/EMSO-France
Depth: 2436.0 m
Title:EMSO Ligure Ouest : Data MII capteur CSTAR
DateTime,Latitude,Longitude,Instrument_Serial,Reference_Counts,Signal_Counts,Corrected_Signal_raw_counts,Calculated_Beam_c_inverse_meters,Internal_thermistor_counts
DateTime,Latitude,Longitude,Instrument_Serial,Reference_Counts,Signal_Counts,Corrected_Signal_raw_counts,Calculated_Beam_c_inverse_meters,Internal_thermistor_counts
2023-01-03T12:30:06,42.805,6.029,CST-1368DR,4477,4984,11838,01.108,551
2023-01-03T12:33:08,42.805,6.029,CST-1368DR,4476,4973,11816,01.115,551
2023-01-03T12:36:09,42.805,6.029,CST-1368DR,4476,4972,11812,01.117,551
2023-01-03T12:39:11,42.805,6.029,CST-1368DR,4475,4973,11817,01.115,551
2023-01-03T12:42:13,42.805,6.029,CST-1368DR,4475,4969,11809,01.118,551
2023-01-03T12:45:14,42.805,6.029,CST-1368DR,4474,4974,11822,01.113,551
2023-01-03T12:48:16,42.805,6.029,CST-1368DR,4474,4971,11815,01.116,551
2023-01-03T12:51:17,42.805,6.029,CST-1368DR,4473,4973,11823,01.113,551
2023-01-03T12:54:19,42.805,6.029,CST-1368DR,4473,4970,11816,01.115,551
2023-01-03T12:57:20,42.805,6.029,CST-1368DR,4472,4969,11815,01.116,551
2023-01-03T13:00:22,42.805,6.029,CST-1368DR,4472,4966,11810,01.117,551
2023-01-03T13:03:24,42.805,6.029,CST-1368DR,4472,4966,11809,01.118,551
2023-01-03T13:06:25,42.805,6.029,CST-1368DR,4471,4966,11812,01.117,551
2023-01-03T13:09:27,42.805,6.029,CST-1368DR,4471,4962,11803,01.120,551
2023-01-03T13:12:28,42.805,6.029,CST-1368DR,4470,4960,11800,01.121,551
2023-01-03T13:15:30,42.805,6.029,CST-1368DR,4470,4965,11811,01.117,551
2023-01-03T13:18:32,42.805,6.029,CST-1368DR,4470,4963,11807,01.118,551
2023-01-03T13:21:33,42.805,6.029,CST-1368DR,4469,4962,11807,01.118,551
2023-01-03T13:24:35,42.805,6.029,CST-1368DR,4469,4962,11806,01.119,551
2023-01-03T13:27:36,42.805,6.029,CST-1368DR,4469,4962,11808,01.118,551
2023-01-03T13:30:38,42.805,6.029,CST-1368DR,4469,4962,11806,01.119,551
2023-01-03T13:33:40,42.805,6.029,CST-1368DR,4468,4962,11810,01.117,551
2023-01-03T13:36:41,42.805,6.029,CST-1368DR,4468,4964,11815,01.116,551
2023-01-03T13:39:43,42.805,6.029,CST-1368DR,4468,4964,11813,01.116,551
2023-01-03T13:42:44,42.805,6.029,CST-1368DR,4467,4963,11813,01.116,551
2023-01-03T13:45:46,42.805,6.029,CST-1368DR,4467,4961,11809,01.118,551
2023-01-03T13:48:47,42.805,6.029,CST-1368DR,4467,4957,11800,01.121,551
2023-01-03T13:51:49,42.805,6.029,CST-1368DR,4467,4960,11808,01.118,551
2023-01-03T13:54:51,42.805,6.029,CST-1368DR,4466,4959,11807,01.118,551
2023-01-03T13:57:52,42.805,6.029,CST-1368DR,4466,4956,11800,01.121,551
2023-01-03T14:00:54,42.805,6.029,CST-1368DR,4466,4961,11812,01.117,551
2023-01-03T14:03:55,42.805,6.029,CST-1368DR,4466,4959,11807,01.118,551
2023-01-03T14:06:57,42.805,6.029,CST-1368DR,4465,4959,11809,01.118,551
2023-01-03T14:09:59,42.805,6.029,CST-1368DR,4465,4960,11812,01.117,551
2023-01-03T14:13:00,42.805,6.029,CST-1368DR,4465,4953,11796,01.122,551
2023-01-03T14:16:02,42.805,6.029,CST-1368DR,4465,4959,11809,01.118,551
2023-01-03T14:19:03,42.805,6.029,CST-1368DR,4465,4958,11808,01.118,551
2023-01-03T14:22:05,42.805,6.029,CST-1368DR,4464,4955,11802,01.120,551
2023-01-03T14:25:06,42.805,6.029,CST-1368DR,4464,4956,11806,01.119,551
2023-01-03T14:28:08,42.805,6.029,CST-1368DR,4464,4954,11799,01.121,551
2023-01-03T14:31:10,42.805,6.029,CST-1368DR,4464,4956,11805,01.119,551
2023-01-03T14:34:11,42.805,6.029,CST-1368DR,4463,4956,11807,01.118,551
2023-01-03T14:37:13,42.805,6.029,CST-1368DR,4463,4955,11805,01.119,551
2023-01-03T14:40:14,42.805,6.029,CST-1368DR,4463,4956,11808,01.118,551
2023-01-03T14:43:16,42.805,6.029,CST-1368DR,4463,4962,11821,01.114,551
2023-01-03T14:46:18,42.805,6.029,CST-1368DR,4463,4959,11814,01.116,551
2023-01-03T14:49:19,42.805,6.029,CST-1368DR,4463,4956,11808,01.118,551
2023-01-03T14:52:21,42.805,6.029,CST-1368DR,4462,4958,11815,01.116,551
2023-01-03T14:55:22,42.805,6.029,CST-1368DR,4462,4954,11806,01.119,551
2023-01-03T14:58:24,42.805,6.029,CST-1368DR,4462,4954,11806,01.119,551
2023-01-03T15:01:26,42.805,6.029,CST-1368DR,4462,4956,11811,01.117,551
2023-01-03T15:05:06,42.805,6.029,CST-1368DR,4462,4952,11800,01.121,551
2023-01-03T15:08:08,42.805,6.029,CST-1368DR,4461,4955,11809,01.118,551
2023-01-03T15:11:09,42.805,6.029,CST-1368DR,4461,4956,11812,01.117,551
2023-01-03T15:14:11,42.805,6.029,CST-1368DR,4461,4953,11806,01.119,551
2023-01-03T15:17:13,42.805,6.029,CST-1368DR,4461,4952,11804,01.119,551
2023-01-03T15:20:14,42.805,6.029,CST-1368DR,4461,4955,11810,01.117,551
2023-01-03T15:23:16,42.805,6.029,CST-1368DR,4461,4953,11806,01.119,551
2023-01-03T15:26:17,42.805,6.029,CST-1368DR,4460,4955,11814,01.116,551
2023-01-03T15:29:19,42.805,6.029,CST-1368DR,4460,4956,11814,01.116,551
2023-01-03T15:32:21,42.805,6.029,CST-1368DR,4460,4947,11795,01.122,551
2023-01-03T15:35:22,42.805,6.029,CST-1368DR,4460,4953,11807,01.118,551
2023-01-03T15:38:24,42.805,6.029,CST-1368DR,4460,4949,11798,01.121,551
2023-01-03T15:41:25,42.805,6.029,CST-1368DR,4460,4951,11803,01.120,551
2023-01-03T15:45:07,42.805,6.029,CST-1368DR,4460,4952,11806,01.119,551
2023-01-03T15:48:08,42.805,6.029,CST-1368DR,4459,4953,11811,01.117,551
2023-01-03T15:51:10,42.805,6.029,CST-1368DR,4459,4953,11811,01.117,551
2023-01-03T15:54:12,42.805,6.029,CST-1368DR,4459,4953,11810,01.117,551
2023-01-03T15:57:13,42.805,6.029,CST-1368DR,4459,4951,11806,01.119,551
2023-01-03T16:00:15,42.805,6.029,CST-1368DR,4459,4950,11804,01.119,551
2023-01-03T16:03:16,42.805,6.029,CST-1368DR,4459,4952,11808,01.118,551
2023-01-03T16:06:18,42.805,6.029,CST-1368DR,4459,4952,11808,01.118,551
2023-01-03T16:09:20,42.805,6.029,CST-1368DR,4458,4954,11815,01.116,551
2023-01-03T16:12:21,42.805,6.029,CST-1368DR,4458,4953,11812,01.117,551
2023-01-03T16:15:23,42.805,6.029,CST-1368DR,4458,4951,11809,01.118,551
2023-01-03T16:18:24,42.805,6.029,CST-1368DR,4458,4953,11813,01.116,551
2023-01-03T16:21:26,42.805,6.029,CST-1368DR,4458,4951,11809,01.118,551
2023-01-03T16:24:27,42.805,6.029,CST-1368DR,4458,4952,11810,01.117,551
2023-01-03T16:27:29,42.805,6.029,CST-1368DR,4457,4952,11814,01.116,551
2023-01-03T16:30:31,42.805,6.029,CST-1368DR,4457,4954,11817,01.115,551
2023-01-03T16:33:32,42.805,6.029,CST-1368DR,4457,4952,11814,01.116,551
2023-01-03T16:36:34,42.805,6.029,CST-1368DR,4457,4951,11812,01.117,551
2023-01-03T16:39:35,42.805,6.029,CST-1368DR,4457,4951,11811,01.117,551
2023-01-03T16:42:37,42.805,6.029,CST-1368DR,4457,4952,11814,01.116,551
2023-01-03T16:45:39,42.805,6.029,CST-1368DR,4457,4951,11811,01.117,551
2023-01-03T16:48:40,42.805,6.029,CST-1368DR,4457,4955,11820,01.114,551
2023-01-03T16:51:42,42.805,6.029,CST-1368DR,4456,4952,11816,01.115,551
2023-01-03T16:54:43,42.805,6.029,CST-1368DR,4456,4951,11814,01.116,551
2023-01-03T16:57:45,42.805,6.029,CST-1368DR,4456,4950,11812,01.117,551
2023-01-03T17:00:47,42.805,6.029,CST-1368DR,4456,4953,11819,01.114,551
2023-01-03T17:03:48,42.805,6.029,CST-1368DR,4456,4952,11816,01.115,551
2023-01-03T17:06:50,42.805,6.029,CST-1368DR,4456,4952,11816,01.115,551
2023-01-03T17:09:51,42.805,6.029,CST-1368DR,4456,4952,11816,01.115,551
2023-01-03T17:12:53,42.805,6.029,CST-1368DR,4456,4950,11810,01.117,551
2023-01-03T17:15:54,42.805,6.029,CST-1368DR,4456,4953,11818,01.115,551
2023-01-03T17:18:56,42.805,6.029,CST-1368DR,4456,4952,11815,01.116,551
2023-01-03T17:21:58,42.805,6.029,CST-1368DR,4455,4951,11816,01.115,551
2023-01-03T17:24:59,42.805,6.029,CST-1368DR,4455,4950,11813,01.116,551
2023-01-03T17:28:01,42.805,6.029,CST-1368DR,4455,4953,11821,01.114,551
2023-01-03T17:31:02,42.805,6.029,CST-1368DR,4455,4952,11817,01.115,551
2023-01-03T17:34:04,42.805,6.029,CST-1368DR,4455,4950,11814,01.116,551
2023-01-03T17:37:06,42.805,6.029,CST-1368DR,4455,4951,11816,01.115,551
2023-01-03T17:40:07,42.805,6.029,CST-1368DR,4455,4949,11811,01.117,551
2023-01-03T17:43:09,42.805,6.029,CST-1368DR,4455,4951,11816,01.115,551
2023-01-03T17:46:10,42.805,6.029,CST-1368DR,4455,4951,11816,01.115,551
2023-01-03T17:49:12,42.805,6.029,CST-1368DR,4455,4949,11812,01.117,551
2023-01-03T17:52:13,42.805,6.029,CST-1368DR,4454,4949,11815,01.116,551
2023-01-03T17:55:15,42.805,6.029,CST-1368DR,4454,4950,11817,01.115,551
2023-01-03T17:58:17,42.805,6.029,CST-1368DR,4454,4951,11818,01.115,551
2023-01-03T18:01:18,42.805,6.029,CST-1368DR,4454,4951,11819,01.114,551
2023-01-03T18:04:20,42.805,6.029,CST-1368DR,4454,4949,11813,01.116,551
2023-01-03T18:07:21,42.805,6.029,CST-1368DR,4454,4950,11816,01.115,551
2023-01-03T18:10:23,42.805,6.029,CST-1368DR,4454,4949,11813,01.116,551
2023-01-03T18:13:25,42.805,6.029,CST-1368DR,4454,4948,11811,01.117,551
2023-01-03T18:16:26,42.805,6.029,CST-1368DR,4454,4946,11806,01.119,551
2023-01-03T18:19:28,42.805,6.029,CST-1368DR,4454,4954,11827,01.112,551
2023-01-03T18:22:29,42.805,6.029,CST-1368DR,4453,4947,11811,01.117,551
2023-01-03T18:25:31,42.805,6.029,CST-1368DR,4453,4948,11815,01.116,551
2023-01-03T18:28:33,42.805,6.029,CST-1368DR,4453,4953,11826,01.112,551
2023-01-03T18:31:34,42.805,6.029,CST-1368DR,4453,4948,11815,01.116,551
2023-01-03T18:34:36,42.805,6.029,CST-1368DR,4453,4950,11820,01.114,551
2023-01-03T18:37:37,42.805,6.029,CST-1368DR,4453,4949,11816,01.115,551
2023-01-03T18:40:39,42.805,6.029,CST-1368DR,4453,4951,11821,01.114,551
2023-01-03T18:43:40,42.805,6.029,CST-1368DR,4453,4948,11814,01.116,551
2023-01-03T18:46:42,42.805,6.029,CST-1368DR,4453,4949,11816,01.115,551
2023-01-03T18:49:44,42.805,6.029,CST-1368DR,4453,4949,11815,01.116,551
2023-01-03T18:52:45,42.805,6.029,CST-1368DR,4452,4948,11816,01.115,551
2023-01-03T18:55:47,42.805,6.029,CST-1368DR,4452,4947,11813,01.116,551
2023-01-03T18:58:48,42.805,6.029,CST-1368DR,4452,4950,11820,01.114,551
2023-01-03T19:01:50,42.805,6.029,CST-1368DR,4452,4949,11819,01.114,551
2023-01-03T19:04:52,42.805,6.029,CST-1368DR,4452,4947,11813,01.116,551
2023-01-03T19:07:53,42.805,6.029,CST-1368DR,4452,4947,11813,01.116,551
2023-01-03T19:10:55,42.805,6.029,CST-1368DR,4452,4945,11810,01.117,551
2023-01-03T19:13:56,42.805,6.029,CST-1368DR,4452,4947,11814,01.116,551
2023-01-03T19:16:58,42.805,6.029,CST-1368DR,4452,4943,11804,01.119,551
2023-01-03T19:19:59,42.805,6.029,CST-1368DR,4452,4946,11813,01.116,551
2023-01-03T19:23:01,42.805,6.029,CST-1368DR,4452,4946,11813,01.116,551
2023-01-03T19:26:03,42.805,6.029,CST-1368DR,4452,4947,11813,01.116,551
2023-01-03T19:29:04,42.805,6.029,CST-1368DR,4452,4948,11817,01.115,551
2023-01-03T19:32:06,42.805,6.029,CST-1368DR,4451,4946,11814,01.116,551
2023-01-03T19:35:07,42.805,6.029,CST-1368DR,4451,4948,11819,01.114,551
2023-01-03T19:38:09,42.805,6.029,CST-1368DR,4451,4947,11816,01.115,551
2023-01-03T19:41:11,42.805,6.029,CST-1368DR,4451,4946,11814,01.116,551
2023-01-03T19:44:12,42.805,6.029,CST-1368DR,4451,4947,11816,01.115,551
2023-01-03T19:47:14,42.805,6.029,CST-1368DR,4451,4947,11816,01.115,551
2023-01-03T19:50:15,42.805,6.029,CST-1368DR,4451,4946,11815,01.116,551
2023-01-03T19:53:17,42.805,6.029,CST-1368DR,4451,4942,11805,01.119,551
2023-01-03T19:56:18,42.805,6.029,CST-1368DR,4451,4942,11805,01.119,551
2023-01-03T19:59:20,42.805,6.029,CST-1368DR,4451,4946,11813,01.116,551
2023-01-03T20:02:22,42.805,6.029,CST-1368DR,4451,4944,11809,01.118,551
2023-01-03T20:05:23,42.805,6.029,CST-1368DR,4451,4947,11816,01.115,551
2023-01-03T20:08:25,42.805,6.029,CST-1368DR,4450,4944,11812,01.117,551
2023-01-03T20:11:26,42.805,6.029,CST-1368DR,4450,4946,11818,01.115,551
2023-01-03T20:14:28,42.805,6.029,CST-1368DR,4450,4948,11821,01.114,551
2023-01-03T20:17:30,42.805,6.029,CST-1368DR,4450,4946,11818,01.115,551
2023-01-03T20:20:31,42.805,6.029,CST-1368DR,4450,4945,11815,01.116,551
2023-01-03T20:23:33,42.805,6.029,CST-1368DR,4450,4946,11816,01.115,551
2023-01-03T20:26:34,42.805,6.029,CST-1368DR,4450,4944,11813,01.116,551
2023-01-03T20:29:36,42.805,6.029,CST-1368DR,4450,4945,11815,01.116,551
2023-01-03T20:32:38,42.805,6.029,CST-1368DR,4450,4944,11813,01.116,551
2023-01-03T20:35:39,42.805,6.029,CST-1368DR,4450,4945,11813,01.116,551
2023-01-03T20:38:41,42.805,6.029,CST-1368DR,4450,4943,11810,01.117,551
2023-01-03T20:41:42,42.805,6.029,CST-1368DR,4450,4943,11810,01.117,551
2023-01-03T20:44:44,42.805,6.029,CST-1368DR,4450,4944,11812,01.117,551
2023-01-03T20:47:45,42.805,6.029,CST-1368DR,4449,4942,11811,01.117,551
2023-01-03T20:50:47,42.805,6.029,CST-1368DR,4449,4945,11817,01.115,551
2023-01-03T20:53:49,42.805,6.029,CST-1368DR,4449,4945,11817,01.115,551
2023-01-03T20:56:50,42.805,6.029,CST-1368DR,4449,4943,11813,01.116,551
2023-01-03T20:59:52,42.805,6.029,CST-1368DR,4449,4949,11826,01.112,551
2023-01-03T21:02:53,42.805,6.029,CST-1368DR,4449,4947,11823,01.113,551
2023-01-03T21:05:55,42.805,6.029,CST-1368DR,4449,4946,11819,01.114,551
2023-01-03T21:08:57,42.805,6.029,CST-1368DR,4449,4949,11826,01.112,551
2023-01-03T21:11:58,42.805,6.029,CST-1368DR,4449,4946,11818,01.115,551
2023-01-03T21:15:00,42.805,6.029,CST-1368DR,4449,4948,11824,01.113,551
2023-01-03T21:18:01,42.805,6.029,CST-1368DR,4449,4946,11818,01.115,551
2023-01-03T21:21:03,42.805,6.029,CST-1368DR,4449,4945,11817,01.115,551
2023-01-03T21:24:04,42.805,6.029,CST-1368DR,4449,4945,11817,01.115,551
2023-01-03T21:27:06,42.805,6.029,CST-1368DR,4449,4943,11813,01.116,551
2023-01-03T21:30:08,42.805,6.029,CST-1368DR,4448,4936,11799,01.121,551
2023-01-03T21:33:09,42.805,6.029,CST-1368DR,4449,4944,11815,01.116,551
2023-01-03T21:36:11,42.805,6.029,CST-1368DR,4448,4945,11820,01.114,551
2023-01-03T21:39:12,42.805,6.029,CST-1368DR,4448,4944,11817,01.115,551
2023-01-03T21:42:14,42.805,6.029,CST-1368DR,4448,4944,11817,01.115,551
2023-01-03T21:45:16,42.805,6.029,CST-1368DR,4448,4944,11817,01.115,551
2023-01-03T21:48:17,42.805,6.029,CST-1368DR,4448,4942,11811,01.117,551
2023-01-03T21:51:19,42.805,6.029,CST-1368DR,4448,4944,11816,01.115,551
2023-01-03T21:54:20,42.805,6.029,CST-1368DR,4448,4943,11816,01.115,551
2023-01-03T21:57:22,42.805,6.029,CST-1368DR,4448,4943,11815,01.116,551
2023-01-03T22:00:24,42.805,6.029,CST-1368DR,4448,4949,11829,01.111,551
2023-01-03T22:03:25,42.805,6.029,CST-1368DR,4448,4947,11823,01.113,551
2023-01-03T22:06:27,42.805,6.029,CST-1368DR,4448,4948,11826,01.112,551
2023-01-03T22:09:28,42.805,6.029,CST-1368DR,4448,4945,11819,01.114,551
2023-01-03T22:12:30,42.805,6.029,CST-1368DR,4448,4943,11815,01.116,551
2023-01-03T22:15:31,42.805,6.029,CST-1368DR,4448,4944,11817,01.115,551
2023-01-03T22:18:33,42.805,6.029,CST-1368DR,4448,4945,11820,01.114,551
2023-01-03T22:21:35,42.805,6.029,CST-1368DR,4448,4945,11819,01.114,551
2023-01-03T22:24:36,42.805,6.029,CST-1368DR,4448,4944,11817,01.115,551
2023-01-03T22:27:38,42.805,6.029,CST-1368DR,4447,4945,11822,01.113,551
2023-01-03T22:30:39,42.805,6.029,CST-1368DR,4447,4946,11825,01.112,551
2023-01-03T22:33:41,42.805,6.029,CST-1368DR,4447,4943,11817,01.115,551
2023-01-03T22:36:43,42.805,6.029,CST-1368DR,4447,4944,11819,01.114,551
2023-01-03T22:39:44,42.805,6.029,CST-1368DR,4447,4946,11825,01.112,551
2023-01-03T22:42:46,42.805,6.029,CST-1368DR,4447,4943,11817,01.115,551
2023-01-03T22:45:47,42.805,6.029,CST-1368DR,4447,4943,11817,01.115,551
2023-01-03T22:48:49,42.805,6.029,CST-1368DR,4447,4943,11816,01.115,551
2023-01-03T22:51:50,42.805,6.029,CST-1368DR,4447,4942,11816,01.115,551
2023-01-03T22:54:52,42.805,6.029,CST-1368DR,4447,4943,11817,01.115,551
2023-01-03T22:57:54,42.805,6.029,CST-1368DR,4447,4943,11817,01.115,551
2023-01-03T23:00:55,42.805,6.029,CST-1368DR,4447,4947,11826,01.112,551
2023-01-03T23:03:57,42.805,6.029,CST-1368DR,4447,4943,11817,01.115,551
2023-01-03T23:06:58,42.805,6.029,CST-1368DR,4447,4944,11820,01.114,551
2023-01-03T23:10:00,42.805,6.029,CST-1368DR,4447,4943,11817,01.115,551
2023-01-03T23:13:02,42.805,6.029,CST-1368DR,4447,4944,11820,01.114,551
2023-01-03T23:16:03,42.805,6.029,CST-1368DR,4447,4943,11817,01.115,551
2023-01-03T23:19:05,42.805,6.029,CST-1368DR,4446,4943,11820,01.114,551
2023-01-03T23:22:06,42.805,6.029,CST-1368DR,4447,4945,11822,01.113,551
2023-01-03T23:25:08,42.805,6.029,CST-1368DR,4446,4944,11823,01.113,551
2023-01-03T23:28:10,42.805,6.029,CST-1368DR,4446,4941,11815,01.116,551
2023-01-03T23:31:11,42.805,6.029,CST-1368DR,4446,4941,11815,01.116,551
2023-01-03T23:34:13,42.805,6.029,CST-1368DR,4446,4943,11821,01.114,551
2023-01-03T23:37:14,42.805,6.029,CST-1368DR,4446,4941,11815,01.116,551
2023-01-03T23:40:16,42.805,6.029,CST-1368DR,4446,4943,11819,01.114,551
2023-01-03T23:43:17,42.805,6.029,CST-1368DR,4446,4942,11818,01.115,551
2023-01-03T23:46:19,42.805,6.029,CST-1368DR,4446,4944,11821,01.114,551
2023-01-03T23:49:21,42.805,6.029,CST-1368DR,4446,4943,11819,01.114,551
2023-01-03T23:52:22,42.805,6.029,CST-1368DR,4446,4943,11819,01.114,551
2023-01-03T23:55:24,42.805,6.029,CST-1368DR,4446,4943,11820,01.114,551
2023-01-03T23:58:25,42.805,6.029,CST-1368DR,4446,4949,11835,01.109,551
